Theta_e
364 361 358 360 361 357 348 340 318 325 321 313 315 318 315 328 330 328 325 331 324 331 336 336 336 334 328 327 327 328 328 327 329 312 308 329 350 352 354 358 359 359 359 361 362 362 362 364 364 365 366 365 365 364 365 365 365 365 365 363 364 364 364 364 364 364 366 366 366 365 365 365 365 365 365 364 364 363 363 362 362 362 362 361 361 360 359 361 359 360 360 360 361 360 361 361 361
364 360 361 362 353 346 334 338 322 319 319 314 315 321 320 325 328 326 326 327 327 332 337 340 335 334 332 330 329 329 326 330 332 331 339 348 351 352 357 358 358 357 360 362 362 362 362 363 365 364 364 364 363 363 363 364 364 363 365 364 364 364 364 364 363 364 364 365 366 365 365 364 365 365 364 363 363 362 361 361 360 361 360 360 361 360 358 360 359 358 360 360 359 360 361 360 361
363 361 357 358 353 343 338 335 315 314 312 309 314 319 326 323 323 324 324 326 331 334 339 340 339 340 330 331 323 323 318 336 340 343 342 350 346 350 356 357 358 358 361 361 362 362 362 363 364 364 364 363 362 362 362 362 363 364 363 363 364 364 365 364 364 364 365 364 364 363 363 363 364 363 363 362 361 360 361 361 360 359 359 360 360 360 359 359 360 359 359 359 360 359 360 361 361
361 361 353 351 335 343 326 324 316 313 311 313 313 321 323 325 323 324 327 331 334 338 339 336 332 340 327 320 323 329 326 330 339 342 341 345 346 353 355 357 360 359 359 359 361 363 362 363 364 363 363 363 362 363 364 364 364 363 363 363 363 362 363 364 364 364 364 364 364 364 364 363 363 363 362 360 359 359 359 358 358 360 360 360 360 360 359 359 358 359 359 359 359 359 358 361 360
361 363 364 347 335 326 325 321 318 316 309 315 312 320 324 327 326 329 333 336 336 336 336 336 330 337 341 334 338 324 324 334 339 344 344 348 353 354 356 358 357 357 357 358 361 362 363 365 365 364 364 363 363 363 364 364 364 364 363 363 362 364 365 364 364 364 364 364 364 364 364 363 363 361 359 359 358 358 358 359 360 360 359 359 359 358 358 358 358 358 358 359 359 359 359 359 360
358 356 358 350 332 339 329 317 315 315 317 321 316 319 325 329 328 331 332 336 337 339 338 336 330 332 333 337 341 329 340 325 337 339 344 347 352 355 357 357 356 355 357 358 360 361 362 365 365 365 364 365 365 365 365 364 364 364 365 364 364 364 364 363 364 363 364 364 364 365 364 363 359 359 358 358 359 358 359 357 358 358 357 357 357 358 357 357 359 359 359 360 360 360 361 360 360
350 348 345 342 338 338 318 314 314 316 320 327 321 322 326 327 329 330 329 330 334 334 338 333 340 334 328 335 340 345 348 348 341 339 347 350 353 355 356 355 355 354 357 357 359 360 361 366 365 365 365 365 365 365 364 364 364 364 363 363 363 363 363 363 363 363 364 364 363 362 359 359 359 358 358 358 359 358 357 356 355 356 357 358 360 361 361 362 362 363 362 362 363 362 361 362 362
357 341 339 328 323 324 317 317 317 319 320 330 327 324 325 327 328 328 328 327 327 328 335 339 337 331 330 342 323 338 346 355 342 342 349 351 353 353 354 352 352 354 357 358 359 359 366 367 366 366 365 365 363 363 363 364 363 364 363 363 363 362 362 361 361 361 361 360 359 358 358 359 358 357 357 354 355 355 356 356 358 359 359 361 361 362 362 363 362 362 362 361 362 362 362 362 362
353 347 345 327 318 321 317 316 318 325 323 327 327 332 334 329 329 329 327 331 331 333 333 335 335 323 325 331 330 339 343 346 339 348 350 351 352 352 351 352 353 354 356 357 359 361 362 366 367 366 366 365 365 364 364 364 364 363 363 362 362 362 361 361 361 360 359 359 358 358 357 357 357 357 354 357 359 359 360 360 360 361 362 361 361 361 361 362 362 361 361 361 361 362 362 362 363
346 341 327 323 322 315 315 316 315 320 322 327 326 328 329 331 331 332 331 330 331 334 335 338 336 327 332 328 329 336 341 351 340 341 349 351 351 351 351 352 353 353 355 357 359 361 362 367 368 367 367 365 364 364 364 364 364 364 362 363 361 360 360 359 360 359 358 358 358 358 358 358 357 358 359 359 360 360 360 361 361 362 361 360 360 360 361 361 361 361 361 361 362 362 362 362 362
332 342 340 320 315 313 313 314 317 321 323 327 328 332 332 333 332 331 332 332 335 332 334 335 329 330 333 331 333 341 351 349 340 340 347 350 351 351 350 352 354 356 356 358 359 360 362 361 366 367 367 365 365 364 364 363 363 362 362 361 360 360 359 359 358 358 357 359 358 359 360 360 359 359 360 359 359 360 361 361 361 361 361 360 360 359 361 361 361 361 361 361 362 362 363 363 363
329 329 329 316 313 313 315 316 318 321 324 325 325 333 334 334 334 330 329 328 331 331 331 338 328 335 329 329 329 339 348 342 343 345 348 350 350 352 353 354 355 356 358 358 359 359 360 361 361 364 365 365 364 363 363 362 361 361 361 360 360 359 358 357 357 358 359 359 360 360 361 359 359 359 359 359 360 361 361 361 360 360 360 360 360 360 361 361 361 361 362 362 363 363 363 363 363
334 334 325 318 317 317 320 317 317 321 320 323 325 333 336 333 331 332 331 330 332 331 332 340 338 336 324 327 334 342 340 342 345 349 350 351 352 353 353 353 354 356 357 358 358 359 360 359 359 360 362 364 364 364 362 362 361 361 361 361 359 358 359 359 359 360 362 362 361 360 360 361 360 360 359 360 360 361 360 360 360 361 360 359 360 361 361 362 362 362 363 363 363 363 363 363 363
337 336 329 315 324 318 316 317 319 317 316 323 332 337 338 334 335 336 333 329 332 330 339 341 342 338 332 333 332 334 340 346 345 348 350 351 352 352 352 352 353 353 355 357 357 358 358 357 358 357 358 358 359 361 362 361 361 361 361 360 359 359 360 360 361 362 362 361 361 361 361 360 359 359 359 359 360 361 361 360 360 361 361 361 361 362 362 362 362 363 363 363 363 363 362 361 361
340 341 330 322 317 319 320 316 318 317 317 327 332 335 338 342 341 337 334 330 332 342 344 350 343 331 323 328 326 334 340 345 346 346 347 349 349 349 351 352 352 353 353 355 356 356 354 355 356 355 358 356 356 355 356 358 362 361 361 360 360 362 361 362 363 362 361 360 361 361 359 360 359 358 359 360 361 361 361 361 362 362 362 362 362 362 362 363 363 363 363 364 363 362 361 361 361
344 339 331 315 315 316 319 320 322 318 318 329 331 337 333 337 344 336 338 338 336 343 343 336 344 336 334 331 333 340 344 348 347 348 347 348 348 349 350 350 351 351 351 352 352 352 353 353 353 354 355 355 354 354 355 356 360 362 363 363 363 362 363 363 362 362 361 360 360 361 360 359 360 359 361 361 362 363 363 363 362 362 362 362 363 362 363 363 363 363 363 361 360 361 361 361 361
348 335 322 318 312 316 318 320 321 314 323 328 334 334 329 330 338 342 344 341 333 335 339 341 338 345 334 337 341 345 347 354 350 346 345 344 345 345 346 346 347 348 351 351 351 351 352 352 353 354 355 355 355 355 355 356 360 362 362 363 363 362 362 362 361 360 360 358 358 358 359 355 353 353 354 354 360 359 362 363 363 363 363 362 362 363 363 362 363 363 363 362 362 361 362 362 362
337 325 321 316 316 315 323 322 323 326 325 328 329 333 331 327 334 337 340 336 335 335 335 345 347 343 340 345 345 348 347 345 344 342 342 340 342 341 342 343 344 344 347 348 350 351 351 353 353 354 355 355 356 357 358 359 361 362 356 357 359 358 360 360 357 354 358 352 356 354 352 355 354 353 354 361 357 358 359 362 363 363 363 364 363 363 362 362 362 363 363 363 363 362 362 358 357
331 322 317 312 315 322 328 328 328 328 328 330 331 333 332 331 334 336 331 331 332 332 339 340 339 342 345 344 346 346 346 343 340 341 339 339 339 339 340 341 343 344 344 346 348 350 351 352 354 355 355 356 357 357 358 360 357 355 354 355 358 360 359 359 354 355 349 350 351 351 354 353 354 357 356 359 360 362 362 364 363 363 364 364 364 363 362 362 362 364 363 360 360 361 361 351 349
334 320 311 312 322 325 330 331 330 333 333 330 330 332 332 333 334 337 329 329 332 332 332 335 335 336 339 342 344 343 344 341 338 339 338 338 338 339 338 339 342 344 344 346 347 351 351 352 353 356 356 355 356 356 357 356 355 353 353 353 353 352 350 355 351 352 350 349 348 349 352 353 357 354 361 363 364 361 359 364 364 364 363 361 363 363 363 364 357 358 360 353 361 356 346 340 337
329 326 311 319 325 324 328 332 332 334 334 331 331 333 331 332 334 334 329 328 330 334 336 335 334 336 338 341 342 342 342 339 336 338 337 337 338 339 339 340 342 343 345 349 351 350 351 353 354 355 356 356 356 357 356 354 354 353 351 351 352 353 352 352 352 349 349 349 348 350 353 355 354 352 351 351 353 354 354 353 355 358 357 353 363 354 350 345 343 342 342 345 336 338 336 334 334
326 323 318 324 326 324 330 332 335 334 335 333 332 329 329 334 333 330 330 326 325 334 338 339 339 340 339 340 341 341 339 337 335 338 337 337 337 336 338 341 346 346 349 348 349 352 353 354 354 355 356 356 356 356 354 356 358 351 351 352 351 350 350 350 350 349 348 348 348 351 355 355 351 351 349 348 350 353 346 342 340 345 343 345 350 339 340 339 339 341 337 335 333 333 332 333 333
314 318 318 321 322 323 330 331 331 333 331 330 329 331 331 330 329 332 332 329 331 340 342 342 342 342 342 342 340 337 337 335 335 337 337 337 341 339 339 342 343 345 347 347 350 353 354 354 355 355 354 355 354 355 355 356 353 353 352 353 349 348 348 348 350 350 351 351 350 353 349 341 342 339 337 338 336 339 337 337 339 339 339 338 341 337 338 338 336 339 334 333 332 330 330 332 332
320 316 321 322 325 324 326 326 327 326 326 326 328 331 328 328 325 332 331 333 335 342 344 344 344 343 343 339 338 337 337 335 335 338 339 339 341 341 343 343 344 345 345 347 350 353 355 353 353 353 352 352 352 355 354 352 352 352 352 357 351 354 350 347 348 350 352 346 347 346 346 340 338 336 335 336 337 334 334 336 338 338 337 336 338 336 334 334 335 337 333 333 329 329 330 331 331
321 318 322 322 324 324 324 326 327 328 327 327 327 328 327 329 328 330 329 332 338 343 344 344 343 342 341 338 337 337 337 336 336 339 342 340 344 346 346 345 345 345 344 346 348 351 353 354 353 351 352 351 352 354 352 351 350 351 355 352 348 359 348 348 348 349 343 343 342 343 344 338 338 338 336 336 337 333 334 337 337 338 336 334 334 331 334 333 334 333 331 330 328 329 329 329 333
325 323 323 322 323 324 325 324 326 327 329 332 327 329 326 329 335 333 335 338 341 344 343 342 341 339 339 338 337 337 337 336 337 340 339 341 345 345 345 345 345 343 344 346 348 350 353 354 353 353 353 352 353 354 352 351 352 351 351 350 348 356 348 349 350 341 340 339 339 340 343 340 338 339 339 338 337 335 336 337 336 336 337 336 332 330 333 333 333 327 330 328 328 328 328 329 334
327 324 324 323 324 324 325 323 324 326 328 330 326 327 325 330 331 322 337 340 342 341 340 340 338 337 338 338 337 337 336 335 336 342 341 342 342 343 345 347 346 345 347 346 348 349 355 353 352 354 354 358 354 352 351 352 354 351 352 351 353 351 351 351 343 341 339 339 339 340 340 342 339 339 339 339 340 336 335 334 333 334 335 336 333 331 333 334 330 328 328 327 327 328 328 329 331
326 325 325 325 325 325 325 325 324 325 326 330 328 326 334 336 327 327 335 341 341 338 338 337 337 336 337 336 336 336 335 334 340 342 339 339 340 342 344 345 346 347 346 346 348 351 354 352 352 353 354 357 354 351 353 351 352 352 353 351 352 352 349 340 340 340 341 338 339 339 339 340 344 339 339 340 342 335 333 332 332 332 332 329 332 331 332 329 329 328 329 330 328 329 328 328 332
326 325 320 329 323 322 324 323 325 325 323 330 333 322 321 324 321 332 338 341 340 337 336 336 335 336 336 335 335 334 334 335 340 341 340 341 342 345 343 345 347 346 347 349 350 352 352 352 352 353 355 356 352 351 351 350 352 354 353 352 353 349 341 339 338 339 339 340 339 339 340 342 342 340 339 340 342 335 334 332 331 332 330 329 331 331 328 326 326 326 327 331 329 329 327 328 333
325 323 321 323 316 316 322 326 326 325 325 330 324 307 311 316 324 335 339 339 338 336 334 335 334 335 336 335 334 334 335 335 338 341 342 342 343 345 344 345 349 347 346 348 351 351 354 353 355 354 355 353 352 351 351 351 352 354 354 353 351 341 339 338 340 339 341 339 339 339 339 341 338 337 338 337 334 329 329 331 330 329 330 330 330 330 324 324 324 325 327 328 332 329 326 327 329
315 322 320 312 308 307 320 324 324 322 326 328 324 308 310 316 323 335 338 339 336 334 334 334 335 335 335 334 334 334 334 336 339 341 344 344 344 345 345 346 347 348 348 348 350 352 355 353 356 354 356 352 354 352 352 352 353 354 352 348 342 340 339 337 337 337 336 337 337 337 339 340 337 335 336 335 331 330 329 329 330 329 331 329 327 328 324 324 324 324 327 327 325 325 326 330 328
320 312 307 312 308 307 318 325 324 320 324 329 323 310 312 316 323 333 336 336 336 333 333 333 334 335 335 334 334 334 334 336 341 343 346 345 345 344 345 345 346 348 347 347 351 354 355 354 356 353 354 352 352 353 351 352 352 350 348 349 341 340 338 337 337 337 338 338 338 337 337 340 336 335 334 334 331 329 327 326 328 331 329 325 324 324 326 324 324 325 326 326 323 324 327 324 327
316 310 309 309 310 309 316 320 323 325 325 327 321 309 317 317 323 329 333 332 333 332 332 332 333 334 334 334 335 334 333 334 340 343 345 346 346 345 346 346 346 348 349 348 351 353 353 354 356 352 352 352 351 352 351 351 350 348 348 342 340 339 338 337 337 337 337 336 336 335 336 337 334 335 334 333 329 327 325 325 326 329 330 326 323 321 322 328 322 325 325 327 324 324 325 322 323
309 313 309 311 310 309 308 317 320 324 325 320 323 315 316 320 323 326 329 331 330 328 329 330 331 332 333 334 334 333 332 334 336 340 344 347 347 346 348 350 347 349 351 349 352 353 352 353 352 352 351 352 351 351 350 350 349 347 342 340 343 337 337 337 337 337 336 335 335 335 336 336 333 332 332 332 332 333 326 324 325 327 328 327 326 323 322 324 321 322 323 325 328 326 321 321 322
305 307 307 308 312 312 311 312 317 321 324 320 321 318 315 320 323 324 326 330 328 326 327 328 328 330 331 332 333 333 332 334 336 339 343 346 348 347 348 349 347 348 351 350 353 353 352 352 352 353 351 351 351 351 350 349 347 343 339 338 337 337 337 337 337 336 336 336 335 336 336 335 334 329 329 330 330 329 326 323 323 324 328 326 325 325 323 325 324 322 323 325 326 327 323 321 322
308 311 310 310 308 309 310 316 319 321 318 317 318 317 318 317 321 323 324 328 326 325 326 326 327 328 329 331 331 331 331 333 337 340 342 343 348 348 348 349 348 349 352 351 353 351 351 350 350 351 350 350 350 350 349 346 343 338 335 336 336 337 336 338 335 335 335 335 339 335 334 333 334 331 326 327 328 327 325 325 322 325 325 325 325 324 323 323 322 323 324 329 323 326 324 321 321
309 312 312 310 311 311 315 317 319 321 317 316 317 319 319 318 321 323 322 325 325 323 323 323 325 326 328 329 329 330 330 331 335 340 341 342 345 349 349 349 350 350 352 352 351 350 350 350 350 348 350 350 350 347 346 344 339 335 335 334 334 335 335 335 335 336 336 334 332 332 334 332 329 329 328 325 324 329 325 324 323 323 324 327 326 324 323 324 325 324 324 326 326 322 322 323 322
305 303 304 303 310 308 314 316 320 320 316 313 316 316 316 316 319 323 322 321 322 322 322 321 322 325 326 327 328 328 329 332 332 336 340 342 344 347 349 349 351 349 350 351 349 349 349 350 349 348 349 350 349 347 346 344 342 336 334 334 334 335 335 333 331 331 332 332 330 328 330 330 328 327 329 326 325 323 323 323 323 322 322 326 325 324 324 329 322 322 322 321 323 324 321 323 323
305 301 299 299 300 302 304 314 319 319 317 312 313 312 312 313 318 323 321 320 323 324 323 323 321 323 324 326 327 328 328 328 330 334 339 341 343 345 348 349 350 351 350 350 350 349 349 349 348 349 349 349 349 348 347 344 344 341 338 336 336 334 335 334 333 333 331 328 327 327 327 326 325 324 325 329 325 325 323 323 324 321 322 326 320 319 319 320 320 321 321 320 319 322 324 323 322
301 300 300 298 301 301 296 301 313 317 316 311 312 311 312 314 317 321 323 321 321 324 324 324 324 322 324 325 327 327 327 327 328 333 337 340 342 344 346 347 349 350 350 349 349 348 349 350 348 348 349 349 348 349 349 346 346 343 340 338 337 335 333 335 331 331 329 328 327 327 326 325 324 323 325 328 325 323 322 323 324 320 320 322 319 318 318 319 320 320 320 322 319 317 317 318 323
303 304 299 298 300 301 301 298 303 313 316 310 309 310 308 312 312 316 320 322 321 322 323 323 324 325 326 327 327 328 327 328 328 333 336 339 341 343 344 346 348 349 349 349 349 348 349 348 349 349 349 348 349 351 349 347 345 338 337 337 337 335 333 330 328 327 329 331 326 323 323 324 324 324 324 325 330 321 322 323 322 320 318 319 319 317 317 319 319 319 320 319 318 316 316 317 318
297 300 303 303 303 302 301 301 301 295 295 304 303 294 297 308 313 315 318 318 319 320 320 321 324 325 324 325 326 327 329 329 329 333 335 338 341 343 344 345 346 348 349 349 350 350 349 349 349 349 349 349 349 350 349 344 339 335 334 332 330 329 326 325 324 325 325 323 323 326 325 324 325 323 323 324 327 325 320 320 320 320 318 319 320 318 318 319 319 319 320 319 318 318 315 313 314
301 300 304 305 304 302 300 299 299 293 294 300 304 296 289 300 312 314 315 317 317 319 320 322 323 324 324 325 326 326 327 327 329 334 336 337 340 343 344 344 346 347 349 350 351 350 350 349 349 349 349 349 349 350 347 342 336 335 334 332 331 329 326 327 328 326 324 324 325 322 322 324 323 323 324 323 323 323 320 320 320 321 322 321 324 318 317 318 320 321 322 318 318 320 314 311 312
297 302 305 305 303 300 300 301 300 295 300 301 302 297 293 293 306 316 317 315 316 317 319 321 322 323 324 325 326 327 327 328 328 330 335 337 340 343 343 345 346 347 349 349 350 350 349 349 349 349 350 350 349 350 344 340 335 334 333 333 333 330 330 328 327 325 325 325 322 322 322 321 322 323 323 322 322 325 321 320 320 321 322 323 324 318 318 319 320 321 323 319 319 318 314 311 310
299 302 304 304 304 303 302 299 297 298 298 294 294 302 294 293 296 312 316 313 314 316 318 320 322 323 324 325 326 327 328 329 329 329 332 337 339 342 346 346 348 348 349 348 350 350 350 350 350 350 349 349 349 349 343 339 338 335 334 334 333 333 330 329 329 328 324 325 321 321 320 320 322 323 323 323 323 327 327 321 320 320 321 322 325 321 320 319 319 318 318 319 317 315 318 316 311
303 305 304 302 303 303 301 298 297 295 294 291 296 297 293 289 297 311 314 314 313 316 318 320 321 323 324 325 326 327 327 328 330 330 331 335 341 343 347 348 348 349 349 350 351 351 350 350 349 349 348 348 348 346 343 340 339 339 336 335 332 331 331 329 327 324 322 322 321 321 321 321 321 321 323 322 323 322 321 322 321 321 322 325 325 320 320 318 318 317 317 319 319 317 314 316 314
306 300 299 298 298 297 298 296 298 292 291 292 297 299 296 289 294 309 310 313 316 318 319 320 321 323 324 326 326 327 327 328 329 329 331 332 340 344 347 347 348 349 349 349 350 350 350 349 349 348 348 348 348 345 342 340 340 339 337 334 332 330 329 328 324 322 322 321 319 319 318 319 320 320 322 321 322 322 323 325 321 323 324 327 323 319 320 321 320 319 318 316 317 318 316 312 314
305 299 296 293 295 297 295 294 294 292 285 293 297 297 298 290 294 305 316 319 320 319 318 319 320 322 324 325 326 327 327 328 330 330 330 332 336 342 347 346 348 349 349 349 349 350 349 349 349 348 347 347 346 344 342 341 341 339 336 334 332 331 329 326 323 321 322 320 318 317 317 318 319 321 319 319 320 322 323 323 325 323 323 319 318 318 319 319 319 320 320 318 316 316 319 317 312
302 297 294 292 288 289 286 290 289 288 287 294 295 299 299 299 303 308 313 317 320 322 322 321 322 322 324 325 327 328 328 329 330 330 331 333 334 340 344 345 347 348 348 349 349 349 349 349 348 347 346 346 345 343 343 341 341 338 336 334 333 332 329 327 325 323 323 321 318 316 317 317 319 318 317 318 319 320 321 320 321 321 320 321 319 318 318 318 318 320 321 318 317 315 314 314 313
303 298 291 290 289 288 284 285 289 288 293 297 297 304 298 303 304 308 310 317 322 323 324 324 324 323 324 325 326 327 328 330 331 331 332 334 335 339 345 345 347 347 348 348 349 349 349 349 348 347 345 345 344 343 342 342 342 339 337 335 333 332 330 329 327 325 322 321 320 319 319 318 318 317 318 318 320 322 321 324 323 321 320 322 321 319 318 320 320 320 319 318 318 316 315 314 314
299 297 297 292 289 289 285 287 287 288 290 293 297 297 296 297 300 312 315 318 320 324 326 325 325 324 324 325 326 326 328 329 331 331 332 334 336 338 344 346 347 347 348 348 349 349 349 348 347 347 345 344 342 342 342 341 341 339 337 335 334 333 331 331 328 323 319 319 320 320 320 318 317 317 318 319 322 320 321 320 320 319 319 317 318 318 320 318 318 319 321 319 321 318 315 316 315
298 300 298 293 294 295 291 289 289 289 290 290 296 296 300 302 310 317 322 326 327 328 326 330 325 326 327 328 327 327 329 330 331 332 333 333 337 338 342 346 347 348 347 346 349 349 349 348 348 347 344 342 342 342 341 341 341 339 337 336 336 336 335 332 328 326 321 321 321 320 319 318 317 317 319 319 320 319 319 321 320 318 318 318 319 318 318 318 319 319 318 318 318 323 316 315 315
297 299 293 297 299 299 295 297 299 298 290 290 298 302 308 308 315 315 319 322 324 328 331 331 331 330 326 327 328 329 330 330 331 332 333 334 336 340 342 346 346 342 341 344 347 349 348 346 344 343 342 343 342 342 341 341 340 338 337 337 337 335 334 328 325 323 322 322 322 321 319 319 321 321 321 320 319 319 319 319 319 320 320 320 320 320 320 320 319 318 317 317 317 318 319 314 315
297 295 297 301 301 300 295 289 289 288 287 291 301 299 301 298 300 311 315 316 322 328 331 334 333 333 331 332 329 331 332 333 334 334 335 337 339 343 345 344 341 339 341 343 345 346 346 346 344 343 342 342 341 341 340 340 339 337 337 337 338 336 331 327 325 325 324 322 321 320 320 321 321 321 321 321 319 319 320 326 317 318 318 318 319 321 321 320 320 319 318 317 319 318 317 317 318
302 301 302 300 291 292 291 293 287 288 287 292 299 303 306 302 302 311 314 314 320 323 328 331 333 334 335 336 336 335 337 337 335 336 338 339 342 343 339 337 340 340 341 344 346 347 346 346 345 344 343 343 342 341 341 341 340 338 338 338 339 333 328 328 329 327 323 321 319 319 320 320 321 322 323 319 318 319 318 317 317 317 317 316 317 318 320 319 319 318 319 318 318 317 315 315 317
305 304 301 300 296 292 295 292 290 292 288 292 294 302 298 310 308 316 316 318 319 324 329 331 334 335 336 337 338 339 338 340 341 341 340 341 340 338 337 337 337 337 338 340 344 346 346 345 345 344 344 343 342 341 341 339 339 339 339 339 337 333 328 329 325 324 321 320 319 320 321 320 320 323 319 319 319 318 318 319 319 319 318 318 318 317 318 318 318 317 317 318 316 318 316 315 316
299 299 294 297 299 298 295 296 295 291 287 286 292 294 300 308 315 318 320 321 323 327 330 331 333 334 336 337 338 340 343 342 340 338 336 336 335 336 337 337 337 337 339 340 341 343 344 344 344 344 343 341 340 340 340 339 339 339 339 337 333 328 328 328 325 324 321 321 321 322 320 320 320 317 318 318 319 318 318 319 319 322 319 319 318 317 318 317 318 318 317 317 317 317 316 316 318
296 298 296 298 295 295 292 289 295 295 292 289 294 292 300 312 325 324 321 323 327 331 334 333 334 334 335 337 341 342 342 339 336 335 335 334 333 334 336 336 336 336 336 337 337 340 342 343 343 343 342 341 340 339 339 339 339 339 338 335 329 327 327 326 324 324 322 321 321 320 320 320 318 319 318 319 318 319 318 318 318 318 317 317 318 318 318 318 319 317 317 323 319 316 316 315 315
Wind_Speed
7 5 3 3 2 1 1 2 1 1 0 2 2 2 0 1 1 2 5 3 2 2 4 4 4 3 3 3 7 5 5 1 1 3 3 1 7 11 10 11 11 10 9 7 6 6 7 11 13 13 13 12 13 12 12 12 12 11 11 10 10 9 9 9 9 9 9 9 8 8 7 7 7 7 7 7 7 7 6 6 5 5 4 4 3 3 2 2 2 2 2 2 2 2 2 1 1
3 4 3 3 2 0 1 0 2 1 1 3 3 2 2 2 1 2 3 1 2 2 3 1 5 8 8 8 4 3 10 7 3 5 3 7 11 9 11 13 13 13 9 8 7 6 6 8 12 13 12 13 11 11 10 12 11 11 10 10 10 9 9 9 9 9 9 8 8 7 7 6 7 6 7 6 6 6 5 5 5 4 3 2 2 2 1 2 1 1 1 1 1 1 2 2 2
4 5 4 3 1 1 2 1 1 1 2 3 1 2 1 1 5 6 6 4 5 5 2 1 3 3 3 2 6 4 2 3 11 9 7 11 11 6 12 13 12 12 11 8 7 7 5 7 12 12 11 11 11 11 10 10 10 10 9 10 10 10 9 9 9 9 9 9 8 8 7 6 6 5 6 6 5 4 3 4 3 2 3 2 1 1 1 1 2 2 3 3 3 2 2 2 3
4 2 4 2 1 1 1 0 1 1 3 3 3 4 2 2 7 8 5 4 2 1 0 3 4 1 3 11 4 3 5 3 4 9 7 8 6 11 12 13 12 10 8 8 6 6 5 9 11 14 14 13 12 12 12 12 12 11 10 11 11 11 10 10 10 10 10 9 9 9 8 7 6 5 5 5 5 4 3 1 1 1 2 2 1 2 2 2 2 2 3 3 3 3 3 3 3
4 2 1 2 3 0 1 1 1 1 4 1 4 2 4 3 4 2 1 2 1 0 2 1 3 1 1 3 1 1 1 3 5 6 7 6 11 13 13 13 11 10 9 9 8 7 6 14 13 14 14 15 15 14 13 13 13 12 11 11 12 11 11 11 11 11 10 9 8 7 7 7 6 6 5 4 2 2 1 1 1 1 0 0 0 1 1 1 1 2 3 3 4 4 4 4 4
4 2 1 1 1 1 1 3 5 5 1 1 6 5 5 4 4 3 2 1 2 2 3 3 2 1 3 2 2 4 3 4 5 5 8 9 16 16 16 13 11 10 10 9 8 6 7 15 14 14 14 14 13 13 13 13 12 12 11 11 11 11 11 10 10 10 9 9 7 7 7 7 5 3 4 3 3 1 3 1 1 1 1 2 1 2 3 2 2 3 4 5 4 5 6 6 5
4 2 0 1 1 1 4 4 5 3 4 1 5 5 5 4 4 4 3 4 4 6 3 3 1 2 3 1 1 1 5 3 3 8 7 14 15 16 16 13 12 11 11 9 8 7 9 15 15 14 14 13 13 13 13 13 12 12 12 11 11 11 11 10 9 9 8 9 8 8 6 5 6 3 4 4 3 2 1 1 2 2 3 1 1 3 4 5 5 6 6 6 7 7 7 8 7
1 0 1 1 1 2 4 3 5 1 2 1 2 6 4 5 5 2 3 3 2 1 1 1 2 5 2 2 4 3 3 3 7 13 11 13 15 16 15 12 12 12 11 10 8 6 12 16 15 15 14 14 14 14 13 13 12 12 12 12 11 11 11 10 9 9 9 8 6 5 5 5 4 4 3 2 3 3 3 3 3 3 3 3 4 5 5 5 6 6 7 7 8 8 8 8 8
1 1 0 2 4 2 4 6 3 2 3 2 3 4 6 5 4 3 4 1 3 3 4 2 1 6 1 4 3 3 2 4 13 14 16 15 17 17 10 13 13 12 12 11 9 8 9 15 16 16 15 14 14 14 14 14 13 12 12 12 11 11 11 10 9 8 7 7 6 5 5 5 5 3 3 3 1 1 2 3 3 4 4 5 6 6 6 6 7 7 7 7 7 8 7 7 8
1 0 0 2 2 7 4 3 4 1 2 2 5 5 4 3 3 5 5 4 3 3 1 2 3 8 3 5 2 3 3 7 6 12 16 16 13 12 14 14 14 15 12 10 9 8 8 15 17 15 15 15 15 14 14 13 13 14 12 12 11 10 9 9 8 7 7 6 6 6 6 5 4 3 2 2 2 3 3 4 5 5 6 6 6 7 7 7 7 7 7 7 7 8 8 7 8
1 1 1 4 5 5 6 4 4 3 3 3 2 3 4 3 5 3 3 3 2 3 2 9 5 4 2 1 0 3 4 2 9 13 15 14 14 15 13 13 13 14 13 12 10 9 8 9 17 17 16 15 14 14 13 13 14 12 12 11 10 9 8 7 7 7 6 7 5 4 4 3 2 1 2 3 4 4 5 6 6 7 7 7 7 6 7 7 7 7 7 8 8 9 8 8 8
2 2 1 5 4 3 2 6 4 3 3 3 3 4 2 5 4 4 5 8 4 5 5 3 3 3 4 1 1 2 3 8 8 11 13 14 13 13 13 10 12 12 13 12 11 8 8 8 9 14 16 15 14 14 13 12 12 12 10 10 9 8 8 7 7 7 6 5 4 3 3 2 3 3 4 4 4 5 6 6 7 7 7 7 7 7 7 7 7 7 8 9 10 10 10 9 9
2 1 2 5 1 2 1 5 4 5 3 4 5 2 3 6 5 7 5 6 4 6 3 2 6 2 3 2 3 3 6 4 9 13 14 12 12 11 11 12 12 11 11 10 10 9 10 7 7 8 11 16 14 13 12 12 11 11 10 10 8 8 8 8 7 6 5 4 4 3 3 3 3 4 4 5 5 6 6 6 6 6 7 7 7 7 7 8 8 9 9 10 10 10 10 10 10
2 3 2 2 1 1 2 2 3 4 3 4 1 0 2 3 4 6 8 6 4 3 2 8 3 3 3 2 1 1 2 3 10 12 12 12 11 12 13 11 12 11 9 8 8 8 7 6 5 6 9 8 7 10 12 12 10 10 10 9 9 9 9 8 7 7 6 5 4 5 4 4 5 4 4 4 6 6 6 6 6 7 7 7 7 7 7 8 9 9 10 10 10 11 11 11 11
2 1 3 3 2 2 1 4 8 4 5 3 2 2 2 1 4 5 10 7 5 2 3 2 3 6 5 7 4 4 4 5 8 10 12 10 12 11 13 11 11 10 10 9 7 7 6 5 5 3 3 4 3 4 3 7 11 10 10 9 8 8 7 8 7 6 5 4 4 5 4 3 5 5 6 5 7 7 6 6 6 7 7 8 7 7 8 9 10 10 10 11 11 11 11 11 12
1 2 3 4 1 2 3 3 2 3 3 5 3 2 4 0 1 6 4 5 2 3 7 4 3 2 3 7 9 9 8 5 7 11 12 11 10 9 11 11 11 11 10 10 8 7 5 6 4 4 4 4 3 4 4 4 8 11 9 9 9 8 7 7 5 4 4 1 1 3 3 3 4 4 7 5 7 7 6 5 7 7 7 8 8 7 8 10 10 11 11 11 11 11 12 12 12
2 1 3 2 2 4 3 4 6 5 2 3 3 5 4 4 3 2 4 4 10 8 5 4 7 2 9 6 6 8 7 4 8 13 11 9 8 8 8 7 8 8 7 9 9 7 8 7 6 5 5 5 4 4 3 3 4 9 8 9 8 7 7 6 5 1 2 3 3 4 4 2 2 3 4 4 6 3 6 7 7 7 7 8 8 8 8 11 11 11 13 12 12 12 12 13 13
1 1 5 1 3 5 6 6 8 2 7 5 7 8 7 6 5 4 8 6 6 7 3 1 1 1 8 3 8 8 5 7 8 14 11 10 8 8 8 7 8 8 8 7 9 8 8 7 8 7 5 6 5 4 2 2 1 5 2 1 1 3 3 2 2 1 1 1 3 3 3 2 2 2 3 5 3 3 4 7 6 6 8 9 8 9 8 10 10 12 12 13 13 12 12 5 5
5 3 1 4 6 7 11 8 7 8 5 10 10 9 8 9 12 7 6 6 7 5 1 2 2 2 3 5 9 10 7 6 8 11 12 11 9 12 9 7 7 8 8 8 8 9 8 7 8 7 6 6 6 4 3 2 3 3 2 1 0 2 1 1 1 1 1 0 1 1 2 2 3 3 3 5 3 6 5 7 7 7 8 9 10 10 8 9 11 12 12 10 9 9 4 3 4
8 3 2 5 5 8 12 11 11 11 13 10 9 10 7 8 8 9 7 11 8 9 7 2 7 6 8 10 10 11 8 8 9 8 12 11 9 10 9 9 8 9 9 9 9 7 8 8 9 7 7 7 6 5 4 3 3 3 2 1 1 1 1 2 1 0 0 0 1 2 3 2 3 3 5 7 6 4 3 6 7 9 8 7 9 6 7 8 11 7 7 8 6 4 3 3 4
4 4 4 3 5 6 5 13 14 10 12 13 11 9 9 9 8 8 9 8 8 7 11 14 11 12 12 13 13 11 10 9 8 9 11 10 7 7 9 10 10 8 7 7 7 8 8 8 7 6 7 6 6 5 4 4 3 3 2 1 1 1 1 0 1 0 0 0 1 1 2 3 3 3 2 3 4 4 4 2 2 3 2 2 5 4 4 3 3 4 2 3 3 4 3 4 5
4 8 5 9 7 5 10 12 13 10 12 10 11 11 12 10 7 8 13 11 10 12 11 9 14 15 14 14 14 10 10 11 10 10 11 9 8 7 4 3 4 6 6 8 8 8 8 8 8 7 6 6 6 5 5 5 4 4 3 2 2 1 3 2 1 0 1 1 1 2 2 3 2 2 2 2 1 1 2 2 3 4 4 2 1 1 2 4 4 3 3 4 4 4 4 4 4
3 3 4 7 7 7 10 10 10 10 11 11 11 13 7 13 8 11 15 14 11 11 13 10 13 15 16 14 13 11 11 13 11 10 10 8 7 7 7 6 8 8 6 7 7 6 7 7 7 7 6 6 5 4 4 4 4 4 4 4 4 2 2 2 1 1 1 1 2 2 1 3 4 4 3 3 4 3 4 5 5 4 3 2 3 5 4 3 4 4 4 3 5 5 6 5 5
2 3 3 5 8 8 9 8 9 10 12 13 9 8 10 10 8 9 12 10 6 11 12 12 12 11 10 12 12 12 13 13 12 8 7 8 8 10 11 9 8 7 7 8 7 7 7 8 8 8 7 6 5 5 5 4 4 5 4 4 4 4 3 2 1 1 1 3 2 2 2 4 4 5 4 4 3 4 4 4 4 4 3 3 2 5 5 5 5 4 4 4 5 5 5 5 5
2 2 3 5 7 8 7 8 7 8 8 6 8 13 10 11 8 11 12 8 11 13 13 12 11 10 11 11 11 9 10 10 9 6 3 5 8 7 9 9 9 9 10 8 7 7 7 8 8 8 7 7 6 5 5 4 4 4 4 4 4 4 3 2 2 2 3 2 3 3 3 5 4 4 3 3 2 4 4 5 5 4 4 6 6 6 5 5 5 5 4 5 4 5 5 6 5
3 6 4 4 5 6 7 6 6 5 3 6 10 3 6 6 7 1 5 9 13 14 13 14 13 13 13 12 10 11 10 9 9 6 7 6 9 10 8 10 9 10 10 9 8 7 6 7 9 9 8 7 7 5 5 5 4 4 3 3 3 3 2 2 3 4 3 4 4 3 3 3 4 4 3 4 4 4 5 5 5 4 5 6 6 6 5 5 4 5 5 5 5 5 5 5 5
5 8 10 9 8 7 5 8 5 3 3 3 6 5 6 7 7 1 2 9 12 14 14 13 14 15 15 12 11 11 10 10 9 6 7 7 7 10 9 8 9 9 9 9 7 7 7 7 7 7 7 7 7 6 5 5 4 4 4 3 3 4 3 3 4 4 4 4 3 3 3 3 3 4 4 4 4 4 5 5 5 5 6 5 4 4 3 3 3 3 4 5 5 5 5 5 5
7 4 4 5 7 6 5 6 6 5 1 4 7 4 3 3 1 8 10 11 15 16 14 14 13 14 14 13 12 9 10 9 8 10 12 10 9 9 10 9 8 8 9 9 8 7 8 8 8 7 7 7 7 7 5 5 4 4 4 4 3 4 4 4 4 4 3 3 3 3 3 3 3 4 4 4 4 4 5 5 5 5 5 5 4 4 4 3 3 4 4 4 4 4 5 5 5
6 6 6 2 3 7 6 8 5 5 3 5 4 4 2 3 8 10 14 13 14 14 15 14 14 12 12 12 12 9 10 8 8 10 12 11 10 9 12 9 11 9 5 9 9 9 9 8 8 7 7 7 7 7 6 5 4 4 5 4 4 5 5 5 4 4 4 3 3 3 4 4 4 5 5 4 5 4 4 5 5 5 4 4 4 4 4 4 6 6 6 5 5 5 6 6 5
2 2 4 1 3 1 9 3 5 5 4 10 7 5 8 8 4 14 14 14 13 12 12 13 12 11 11 10 10 8 9 9 10 11 10 9 10 10 11 8 9 10 8 6 8 9 7 6 5 6 6 7 7 6 5 5 5 4 4 4 5 6 5 5 4 4 4 3 3 4 4 4 5 5 5 5 4 5 5 4 4 5 5 4 3 4 5 5 5 5 5 5 5 4 5 5 5
3 1 3 2 3 4 6 5 7 6 3 10 4 6 8 7 6 14 15 16 17 15 13 13 12 12 11 10 9 9 11 11 12 10 10 10 10 9 10 10 9 8 8 8 10 10 8 7 6 6 7 8 7 6 7 6 5 4 5 5 6 6 5 5 5 4 4 4 4 5 4 4 5 5 4 4 4 5 5 5 5 4 4 3 4 3 4 4 4 4 3 5 4 4 3 3 3
1 3 5 2 5 5 4 4 10 9 2 7 5 1 9 9 10 15 15 13 16 15 15 15 14 14 13 11 11 10 10 9 9 9 11 11 10 10 11 12 10 10 11 10 9 9 9 8 7 6 7 8 7 7 7 6 6 5 6 7 7 6 6 5 5 4 4 4 4 5 4 4 5 5 4 4 5 5 5 5 4 4 3 4 4 3 3 4 4 4 3 1 4 5 4 5 3
1 5 3 4 2 5 2 6 9 9 6 5 10 6 1 4 9 14 15 16 16 14 15 15 16 16 14 12 11 10 9 9 9 10 10 11 10 11 11 12 12 13 11 11 11 10 9 9 9 9 9 9 8 7 6 5 4 5 6 9 9 7 6 6 4 4 4 4 5 5 4 4 5 5 4 3 4 4 5 5 4 3 3 3 3 3 4 3 3 3 4 3 2 2 4 4 4
4 0 4 4 5 3 4 4 6 6 11 8 11 4 7 4 12 15 16 17 16 13 15 16 15 14 14 13 12 11 11 10 12 12 12 12 10 11 11 13 13 12 12 13 12 12 11 10 9 9 8 8 7 7 6 5 5 6 8 9 9 8 7 6 5 5 5 5 4 4 3 4 5 6 5 4 5 4 4 4 3 3 3 3 3 3 4 3 3 3 4 4 4 4 5 4 4
6 4 5 6 4 7 8 6 7 10 12 12 10 11 10 5 11 15 18 18 17 16 15 16 16 15 14 12 12 12 12 13 13 12 13 12 12 12 11 12 12 12 11 13 12 10 10 9 8 9 9 8 7 6 5 5 5 8 9 9 9 8 6 5 5 5 5 5 4 3 3 4 5 5 5 4 5 4 4 3 3 3 3 3 3 3 4 4 5 4 4 5 4 3 4 3 3
9 11 11 8 6 6 7 13 5 17 12 10 10 13 15 7 8 13 14 18 17 16 13 12 13 13 13 13 13 12 12 14 12 12 14 13 11 12 11 11 12 12 11 12 12 11 11 10 8 8 8 8 6 6 6 5 6 9 9 8 8 7 6 5 4 5 5 5 3 3 3 4 4 4 4 4 4 3 3 3 3 3 3 3 4 4 5 6 5 5 6 4 4 4 4 5 4
10 8 8 10 11 9 7 9 7 14 8 12 14 16 11 9 9 14 15 16 13 11 12 11 12 12 13 13 14 15 14 14 12 14 15 15 13 12 11 11 11 12 12 13 12 12 12 11 11 10 9 8 8 7 6 6 8 8 8 9 9 7 7 5 5 4 5 4 3 4 4 5 4 4 4 4 4 3 2 2 2 3 3 3 4 3 3 4 4 3 3 4 5 5 7 7 6
5 3 6 8 9 10 10 10 11 11 12 11 12 10 9 8 9 12 9 12 16 15 14 13 13 13 13 16 16 16 15 8 9 11 13 14 11 12 11 10 11 14 12 13 14 13 12 11 11 10 8 9 8 8 7 6 6 8 8 8 8 7 7 7 6 5 5 4 5 5 5 4 4 3 3 3 3 2 3 3 3 4 4 5 4 4 5 5 5 6 4 5 3 4 5 6 7
6 3 2 4 5 6 5 7 8 9 10 9 7 11 11 8 12 12 13 15 17 17 16 18 16 14 13 14 17 14 10 10 10 12 13 12 13 13 11 11 11 14 15 15 13 13 11 10 10 9 9 9 8 7 6 6 4 6 7 7 9 5 3 5 6 5 5 6 5 6 5 4 3 3 3 2 2 2 2 3 3 3 5 5 7 7 5 6 5 6 6 4 4 3 3 5 8
7 6 3 3 5 3 6 6 8 8 10 7 7 9 7 5 10 15 14 14 14 13 15 16 13 14 15 16 16 15 15 14 13 13 15 13 13 13 11 11 11 10 11 11 12 12 10 9 10 10 9 8 8 7 7 4 5 4 8 9 7 7 6 6 6 6 5 6 6 5 5 4 3 3 3 2 2 3 3 4 4 6 5 5 6 6 5 6 6 6 6 5 3 6 5 6 6
6 5 3 3 3 3 3 6 2 8 9 4 4 1 4 3 7 8 9 15 8 6 7 10 11 11 13 9 10 15 18 16 14 12 12 13 13 14 14 12 10 11 11 12 12 11 9 12 12 12 10 10 8 8 8 5 5 7 8 7 7 9 7 5 6 5 4 4 5 5 5 4 4 2 1 0 1 4 4 5 4 4 5 4 5 5 5 5 4 4 4 5 6 3 6 4 6
5 5 6 5 3 5 4 2 3 6 2 4 4 1 3 3 10 15 13 8 8 5 9 15 15 11 7 8 13 11 11 13 15 15 15 16 16 13 12 12 13 11 11 11 12 12 12 12 12 11 10 9 10 9 8 6 7 9 10 9 9 8 7 6 7 7 5 5 5 3 4 4 3 1 1 1 2 4 5 5 4 4 4 5 5 4 4 5 6 5 4 4 6 4 4 7 6
0 5 4 3 1 1 3 5 4 3 3 5 2 3 5 2 6 9 7 12 12 4 10 17 14 10 8 11 10 12 13 11 7 10 13 13 13 13 13 14 14 13 11 10 11 12 13 13 13 12 11 10 10 9 8 7 8 8 10 10 9 9 9 4 3 4 6 5 5 5 5 3 3 2 0 1 4 5 6 6 6 5 5 4 3 5 5 4 4 3 3 5 4 4 6 7 5
4 5 2 2 3 4 5 2 1 3 4 5 1 3 3 2 7 10 8 6 8 7 12 15 13 11 11 11 9 10 11 11 11 12 13 14 15 16 16 15 14 14 13 11 11 12 14 14 14 13 10 10 9 8 8 8 9 9 9 9 8 9 9 8 6 5 4 5 6 5 5 4 3 3 2 1 4 5 5 5 5 6 5 3 3 3 3 3 5 4 3 3 4 5 5 6 4
4 4 4 0 1 1 1 3 4 2 2 9 6 1 2 4 6 2 10 6 9 12 16 16 14 11 12 11 11 11 10 10 11 11 12 13 14 13 13 14 13 13 13 14 13 12 13 13 13 12 11 10 9 9 9 9 9 9 9 9 8 6 8 8 6 5 6 5 6 4 5 4 4 4 3 2 3 4 5 5 5 5 5 4 3 4 3 4 4 4 5 6 4 4 4 3 5
3 2 3 3 1 1 2 2 3 4 3 7 11 3 2 5 6 3 4 8 12 16 18 19 14 14 14 14 13 10 7 5 7 10 10 10 11 12 13 13 13 13 13 13 12 11 12 12 13 13 12 10 9 9 10 9 10 9 9 9 11 9 8 7 6 6 6 5 6 5 4 4 4 3 3 5 7 4 5 5 4 4 4 4 3 3 3 3 3 3 3 4 3 4 4 5 4
1 6 3 7 7 5 4 3 1 4 1 9 10 1 3 3 3 7 9 10 17 16 12 9 6 8 12 15 14 9 7 8 7 7 7 7 9 12 13 15 14 13 12 12 12 11 11 11 13 14 12 10 10 10 10 10 9 8 9 10 12 12 11 10 8 7 5 4 5 5 5 5 3 3 5 6 6 5 5 4 4 3 3 3 4 4 3 3 3 3 3 4 4 4 4 6 5
1 2 1 3 6 8 4 4 3 1 5 9 10 3 4 4 4 5 12 10 14 14 15 14 13 15 17 14 12 9 7 8 8 7 7 9 10 11 12 13 13 13 12 12 10 10 10 10 11 13 11 11 10 9 10 8 7 8 9 10 11 11 11 10 10 10 8 8 6 7 5 3 2 3 4 6 5 5 5 4 3 3 3 4 4 4 3 3 3 4 4 4 4 4 4 6 6
3 3 7 2 3 5 4 3 2 3 5 7 4 3 4 1 4 7 5 4 3 10 14 16 18 17 15 13 13 11 8 7 8 8 8 10 12 13 14 13 12 13 13 13 12 11 10 10 11 11 11 11 10 10 11 8 5 8 10 11 10 10 10 10 10 10 8 8 7 6 5 5 3 3 3 6 4 5 4 5 5 4 3 3 3 4 4 4 4 5 5 6 6 5 5 7 7
1 1 3 2 0 0 3 5 1 4 7 7 2 3 4 2 6 4 9 5 12 15 15 15 17 16 15 13 12 10 7 8 9 9 10 11 12 12 14 14 13 12 12 13 11 11 10 9 10 10 10 11 11 8 7 8 5 9 10 10 9 9 9 9 9 9 8 7 7 7 6 5 5 5 5 5 5 5 4 4 4 3 2 2 3 3 4 4 4 5 5 6 6 4 6 6 6
7 5 6 7 6 3 3 2 3 5 7 6 5 2 1 1 3 8 7 8 4 8 11 9 10 9 6 5 3 4 5 6 7 9 10 11 12 13 13 12 11 12 13 12 10 10 10 10 10 11 10 8 10 10 11 13 10 11 12 11 10 7 8 8 7 7 8 7 5 6 6 5 6 5 6 4 4 5 5 5 5 4 3 3 3 4 4 5 4 5 5 6 6 5 6 6 6
1 2 6 5 6 6 5 7 4 4 2 5 5 1 2 2 3 4 5 7 8 6 4 3 4 4 2 2 3 4 5 5 6 7 8 9 9 9 9 10 11 13 14 12 15 14 13 12 12 12 11 10 12 11 13 13 12 12 13 12 12 8 6 6 6 5 6 7 7 8 7 6 6 6 5 4 4 5 5 4 4 4 3 3 3 4 4 4 4 4 5 5 5 4 6 6 4
3 4 4 9 7 7 0 3 3 1 3 2 2 3 2 3 5 6 9 9 9 8 6 6 6 6 2 4 4 4 4 4 5 7 8 8 7 7 9 12 12 12 12 14 14 15 17 16 15 16 17 18 19 18 14 12 12 14 13 13 12 11 9 10 9 8 7 7 8 8 7 6 6 6 6 4 5 4 4 4 4 4 4 3 3 2 3 2 2 4 4 4 5 4 5 4 4
5 1 7 1 3 3 4 2 3 2 2 1 2 1 2 2 1 2 5 6 6 5 6 5 6 7 6 5 3 3 2 3 2 1 2 5 6 8 9 8 11 11 9 8 7 9 14 15 16 17 17 19 18 16 13 12 11 12 12 11 9 8 10 10 8 7 6 8 7 7 6 6 6 6 5 4 4 4 4 4 4 4 3 4 3 2 1 1 1 1 2 1 2 4 4 3 3
7 6 3 1 2 5 3 2 2 2 1 1 1 2 2 3 3 1 0 1 2 4 5 7 8 7 5 5 6 3 3 5 5 5 5 6 8 8 10 13 13 13 9 5 7 8 9 10 13 16 17 14 15 13 11 10 9 9 10 12 10 9 7 9 8 6 5 8 8 8 7 7 5 4 6 5 4 4 4 3 3 3 2 3 3 3 2 1 0 0 1 1 2 3 3 3 1
3 3 4 1 4 4 1 4 4 2 1 3 3 2 3 3 2 2 3 2 2 1 3 3 4 5 5 5 6 7 8 7 7 6 5 7 10 13 14 14 15 13 10 5 4 5 9 11 11 11 13 12 15 15 14 12 11 11 7 6 5 5 10 11 10 10 7 8 8 8 7 6 6 5 6 5 5 5 4 4 3 3 2 1 3 3 4 3 2 2 2 1 1 2 2 2 1
3 1 3 2 0 3 3 0 1 3 4 4 5 2 5 5 4 1 1 2 4 1 1 2 2 1 3 6 8 9 10 9 8 5 9 15 16 14 14 14 12 10 8 4 2 7 11 10 11 9 13 15 16 18 16 12 11 8 10 10 9 9 13 12 8 8 9 8 8 8 7 6 4 4 5 5 5 5 5 4 3 2 3 3 3 3 2 2 1 3 1 1 0 1 3 1 2
5 9 7 8 2 3 2 8 4 1 1 2 4 3 5 6 1 2 1 0 0 3 2 1 1 4 7 9 11 11 12 10 8 6 8 15 17 14 11 9 9 11 10 6 8 9 9 7 5 4 5 10 15 24 17 16 10 11 9 9 10 9 11 9 7 10 9 9 8 8 7 5 5 4 4 4 4 4 4 4 4 2 3 3 2 0 0 1 1 2 3 0 1 2 3 2 1
Wind_Direction
134 95 114 112 83 80 73 332 153 342 74 74 105 5 75 2 280 129 123 221 97 277 246 247 243 208 187 176 139 129 43 135 236 139 207 192 131 140 146 127 128 135 146 154 155 160 160 165 164 162 162 157 158 156 151 145 142 140 139 137 137 141 144 147 141 141 135 129 128 127 128 128 126 124 129 129 129 128 126 129 123 124 118 112 115 103 95 92 60 63 40 14 37 30 4 70 7
101 106 84 77 55 31 55 247 105 10 69 96 42 248 114 230 355 64 79 90 210 199 223 244 54 82 105 126 122 60 36 26 45 111 76 108 123 135 137 134 139 145 149 154 156 159 161 165 161 162 164 160 153 153 151 144 142 142 139 137 139 139 141 138 142 141 142 138 135 135 133 132 130 127 129 130 128 130 135 138 139 134 122 121 131 92 72 74 27 13 14 311 343 319 349 325 358
128 115 66 43 54 74 121 54 95 158 100 98 60 32 254 93 115 119 152 179 199 214 194 122 88 45 26 45 44 26 88 31 75 69 91 124 120 145 141 138 139 143 143 151 153 155 153 154 158 156 154 148 153 151 145 145 141 129 135 140 140 139 135 136 135 134 135 134 135 139 139 138 131 135 132 132 128 131 138 134 149 167 140 130 71 88 35 352 16 345 331 330 310 328 323 322 320
121 88 113 85 68 274 70 35 72 101 90 80 103 9 296 125 141 160 182 177 232 272 30 27 60 303 91 70 100 34 89 83 111 124 127 154 150 146 143 139 134 135 139 148 148 151 147 156 161 155 149 152 153 150 153 150 137 138 144 141 137 137 135 132 131 134 134 137 139 143 144 144 145 138 150 138 140 146 149 120 111 85 50 38 24 5 3 1 338 342 316 312 315 301 298 297 289
111 83 101 130 121 329 120 93 121 87 88 190 107 217 241 245 153 129 188 265 291 86 65 100 71 336 96 117 53 110 195 101 121 130 138 141 140 145 142 136 139 142 143 144 149 154 161 156 157 148 151 150 153 155 150 145 142 146 151 143 136 135 135 136 137 140 145 145 143 143 148 150 153 158 146 139 128 116 106 147 29 57 50 303 232 273 261 274 298 269 280 277 272 277 283 272 271
90 83 336 105 170 209 47 46 43 73 197 133 131 206 214 213 159 169 110 69 92 94 131 75 153 201 35 335 166 109 171 121 173 134 144 146 148 146 141 142 146 149 140 140 145 156 164 155 153 152 151 151 148 147 146 145 145 146 146 146 145 141 138 138 140 140 143 148 156 166 169 169 144 123 138 130 127 169 167 211 196 186 246 253 259 302 301 307 301 296 281 286 294 289 281 280 281
137 108 333 32 29 17 97 93 73 69 16 99 150 169 193 174 176 146 163 84 43 68 24 104 86 59 65 319 5 231 205 152 138 153 154 149 147 144 145 150 153 141 141 142 149 161 164 156 155 153 153 150 150 150 150 148 148 147 146 144 144 145 142 149 152 154 160 161 169 167 149 154 151 178 162 167 181 192 241 239 216 220 232 250 274 283 283 289 279 278 278 277 277 276 272 272 271
82 172 202 125 27 77 45 73 63 335 50 104 187 144 172 183 178 129 87 92 113 84 4 291 94 126 69 305 108 325 18 183 150 147 135 145 143 146 154 147 132 135 141 144 152 161 161 158 157 156 154 155 155 150 149 149 148 150 148 147 148 151 154 152 156 157 158 151 147 160 159 151 157 170 160 174 183 212 210 216 240 280 302 304 304 296 295 290 290 287 285 281 279 280 279 276 274
356 110 215 62 36 40 63 56 59 18 79 84 106 182 179 165 176 119 79 121 113 89 108 145 210 86 264 20 44 301 330 337 137 139 139 142 147 154 141 134 135 139 143 146 155 157 159 162 159 158 156 156 154 152 152 152 152 152 153 153 155 157 157 155 157 160 160 162 166 168 181 168 165 171 189 179 211 256 257 268 280 292 306 310 309 308 303 302 295 296 293 291 288 288 287 283 281
45 164 315 112 138 73 82 28 64 300 111 161 146 170 161 162 109 113 127 72 118 101 347 106 56 110 150 74 7 351 305 321 114 122 139 148 148 137 135 140 141 140 143 148 154 158 163 161 159 157 156 156 154 154 156 153 157 158 154 155 159 161 162 163 159 164 167 168 172 178 174 176 170 170 182 210 248 271 288 290 298 304 304 305 305 302 300 296 300 299 297 295 290 285 283 283 282
20 343 214 66 45 80 88 94 84 76 129 149 180 211 183 133 123 102 100 119 105 112 178 109 77 102 77 77 190 254 299 260 98 130 140 139 137 138 140 143 143 140 144 149 154 160 166 160 160 159 158 156 154 156 158 159 161 157 158 159 161 164 164 172 171 163 169 174 177 169 155 162 161 203 242 264 265 285 295 298 295 300 303 301 298 295 296 297 297 297 294 291 289 285 283 284 286
26 331 342 90 82 131 131 123 135 136 141 160 188 214 208 131 121 103 109 103 122 132 135 136 167 152 75 96 335 306 326 83 108 132 136 139 141 138 136 138 140 140 142 150 156 163 159 160 164 159 157 157 159 159 159 160 158 160 159 162 164 168 170 171 170 175 178 168 166 168 184 206 229 241 265 284 300 300 294 291 292 290 294 295 296 294 292 291 288 288 288 291 291 292 293 294 295
134 167 46 68 97 78 45 111 156 149 160 208 184 233 143 121 142 146 135 130 146 133 169 193 171 102 103 143 251 339 72 104 117 126 131 132 131 132 134 137 137 136 145 151 157 158 159 166 166 155 162 162 159 162 164 162 165 165 165 165 172 174 176 175 177 172 169 174 181 197 215 237 262 266 279 291 290 283 283 286 288 282 284 287 288 285 285 286 285 283 286 288 293 295 294 296 295
168 185 119 92 349 57 84 157 168 143 220 211 221 251 158 120 170 150 131 135 180 155 192 155 116 114 100 82 310 225 197 167 124 127 132 135 136 138 136 135 137 139 143 151 154 159 163 165 163 163 165 158 162 165 165 168 168 172 171 172 175 181 181 182 177 181 185 187 200 216 236 247 259 265 270 272 274 275 276 283 285 284 277 279 274 274 276 276 276 280 284 288 290 290 292 291 289
239 231 82 103 19 27 251 137 185 179 204 179 215 149 116 62 141 145 152 148 212 171 124 105 160 118 209 153 226 210 206 174 134 131 132 133 134 132 133 138 138 140 148 152 156 160 163 158 162 144 135 133 136 137 160 173 175 173 174 178 178 181 186 186 185 190 195 210 225 235 259 302 290 289 288 278 271 277 285 291 294 291 285 272 274 276 278 278 282 283 284 285 286 288 291 292 291
158 55 57 88 308 135 233 173 174 150 206 189 181 213 113 30 249 147 216 154 139 121 137 164 196 190 174 181 176 192 199 183 125 122 123 123 122 126 133 139 143 148 152 155 159 161 159 157 154 147 142 139 146 152 170 183 178 175 175 177 180 186 190 195 197 204 222 243 304 327 310 288 308 307 296 289 292 285 285 291 287 287 287 284 281 281 279 279 283 286 285 286 287 286 287 286 286
104 98 72 74 193 182 238 159 157 195 215 186 135 191 147 185 203 247 146 130 133 171 193 180 186 101 171 192 189 189 199 162 130 126 122 126 131 137 141 144 144 148 154 159 161 165 165 163 164 154 156 156 155 160 174 185 192 177 178 185 185 182 193 197 205 49 35 9 324 304 301 315 308 299 296 297 287 301 291 284 285 283 280 281 278 277 281 285 283 282 284 285 286 286 287 288 288
150 105 129 196 193 179 201 182 189 159 141 188 176 194 154 167 165 208 125 139 156 167 214 47 24 214 179 174 171 195 170 156 143 134 141 141 148 147 150 152 147 156 161 165 168 169 167 169 167 163 164 162 158 157 164 165 172 136 128 156 171 194 217 206 58 96 15 65 328 334 336 313 305 280 270 275 279 284 288 284 284 273 274 279 274 273 277 279 282 281 280 285 291 290 294 300 301
174 125 87 215 182 206 173 188 178 138 196 178 189 189 176 189 166 173 143 177 161 155 217 135 87 62 88 150 173 193 163 180 154 150 152 155 158 155 155 153 160 157 165 167 171 171 168 166 170 170 167 160 156 155 151 149 114 123 149 132 178 196 301 87 72 55 90 296 309 300 289 299 279 267 261 251 247 258 263 273 271 264 260 267 274 274 280 288 292 282 284 303 298 303 312 318 296
201 133 186 247 186 160 175 167 176 185 162 172 177 197 194 188 173 157 161 176 161 162 153 143 147 163 166 173 178 187 180 189 168 170 162 166 167 156 151 162 169 170 167 171 166 168 163 170 173 170 160 156 153 155 148 137 143 149 167 154 123 73 48 67 70 146 86 248 287 284 274 273 261 253 275 298 307 306 294 274 260 265 264 264 267 288 305 315 320 343 353 349 357 353 337 313 298
174 171 222 182 162 126 191 168 176 181 163 172 179 186 203 178 184 170 163 149 186 190 184 164 177 171 173 179 184 186 188 188 181 182 168 173 169 163 164 172 171 160 159 148 148 163 167 165 158 159 151 153 151 162 153 163 168 158 143 181 124 135 80 50 166 105 263 236 244 267 281 270 287 318 304 292 275 276 281 287 289 269 294 317 313 340 331 322 345 7 2 326 358 0 352 336 346
127 198 181 154 157 141 174 180 177 171 175 165 178 174 206 172 184 186 162 166 194 195 203 182 166 170 171 179 190 185 187 190 189 186 177 171 165 164 138 140 90 114 145 145 150 151 159 159 154 153 152 152 158 162 166 177 164 156 170 185 132 118 111 121 114 222 267 304 305 286 279 287 276 292 335 353 24 68 54 45 36 19 30 18 353 65 46 20 7 3 351 7 353 356 350 340 330
153 213 157 155 159 143 174 176 179 171 172 181 180 195 154 170 188 180 178 183 205 186 174 176 170 174 179 179 179 185 187 189 192 190 178 164 157 155 152 158 144 147 155 151 146 142 146 147 148 148 148 148 155 157 161 157 165 170 174 166 146 177 149 137 124 243 270 326 307 306 42 45 58 45 38 30 45 44 48 41 42 63 86 65 36 41 21 22 9 351 335 348 356 4 346 339 331
131 134 145 131 134 127 145 148 144 154 168 180 183 153 166 170 178 180 188 205 167 164 163 169 173 172 174 180 189 186 185 185 194 195 186 160 153 157 153 156 155 145 143 152 152 145 145 148 149 146 148 151 155 154 150 157 163 162 174 175 153 175 149 146 168 206 8 51 46 51 76 71 70 50 33 38 21 49 41 44 52 48 47 37 44 51 19 1 2 5 352 7 360 356 353 339 326
92 152 165 157 128 156 149 139 128 129 147 187 155 163 185 178 178 161 206 187 154 156 158 163 164 173 182 188 190 189 186 190 196 191 147 132 129 139 144 149 153 150 150 158 155 147 150 149 149 150 154 154 156 151 154 160 166 165 177 159 152 167 140 177 138 54 76 69 48 43 56 58 51 51 45 25 20 51 42 50 45 33 28 19 27 20 24 1 13 11 350 21 357 355 346 337 328
206 194 193 179 140 149 138 111 115 135 136 106 121 128 169 190 91 97 174 154 154 150 157 163 167 176 187 194 192 187 189 194 196 167 156 137 138 130 146 153 152 159 162 154 153 156 153 151 153 158 159 158 154 152 160 157 170 166 162 149 174 131 144 116 89 81 66 66 49 42 43 68 57 54 34 20 39 32 58 56 49 35 36 24 23 23 5 24 17 5 12 18 5 350 345 327 330
202 183 176 176 152 144 157 129 156 149 118 136 120 114 136 156 122 206 219 151 146 152 162 168 172 184 190 190 193 193 187 196 187 159 125 143 147 141 158 155 158 157 149 156 158 160 158 153 157 158 155 154 149 153 165 164 167 164 161 147 163 118 123 104 96 84 67 65 66 52 43 41 55 41 35 27 35 63 70 63 52 45 36 19 14 13 14 23 16 19 23 19 353 343 333 321 336
207 159 112 118 146 152 151 131 142 121 67 131 124 137 149 275 231 183 169 171 160 161 165 174 183 189 192 190 191 194 192 193 169 157 161 159 164 158 162 163 162 152 157 163 162 158 158 163 161 162 161 151 153 158 160 162 176 168 160 153 130 118 114 107 97 87 81 61 51 53 44 32 40 36 32 27 60 70 75 70 56 49 33 20 21 25 19 9 17 7 15 11 339 342 334 347 348
195 142 131 353 32 134 167 157 172 129 174 145 135 67 242 209 212 173 164 167 171 166 168 175 187 196 195 190 191 192 196 183 174 176 179 172 164 165 166 173 159 158 170 159 158 161 164 168 163 169 162 157 157 160 166 167 171 165 157 154 133 129 120 116 116 111 89 65 51 45 38 36 32 34 32 59 74 69 73 73 61 53 37 36 28 26 29 14 24 9 359 354 350 351 -0 354 358
49 26 111 34 8 186 205 183 161 134 195 155 131 172 240 238 204 164 163 168 170 170 176 178 188 196 199 192 190 191 191 179 186 188 181 163 165 169 164 176 165 157 157 161 154 165 164 169 167 166 161 159 165 160 157 163 172 169 161 138 135 121 119 122 115 100 90 66 54 44 41 38 37 34 47 62 74 72 63 62 64 51 42 35 29 27 30 25 16 8 347 354 347 358 355 343 2
168 111 47 153 131 252 223 177 179 156 202 171 129 162 240 252 202 169 170 172 172 179 181 183 189 197 200 195 191 190 194 189 186 184 181 168 163 168 167 166 166 157 150 159 169 165 164 168 167 167 163 164 161 161 160 168 172 170 155 136 125 119 124 115 105 97 89 80 64 48 41 41 41 42 44 69 66 67 62 48 38 32 48 40 39 17 38 12 15 355 340 351 334 348 356 342 20
168 103 261 307 183 276 279 210 170 170 246 206 120 131 215 219 184 174 177 179 179 180 181 185 191 196 198 194 192 191 196 188 181 177 179 175 167 168 167 168 164 162 164 166 163 163 166 166 167 162 158 163 162 163 166 170 170 174 144 128 122 127 127 114 110 107 97 80 65 53 43 44 43 46 52 61 71 63 67 59 36 27 25 46 38 13 26 15 346 342 332 4 4 348 0 356 21
309 163 252 238 183 257 353 239 196 184 154 215 186 205 259 270 187 177 181 183 188 184 183 186 191 197 198 195 193 191 191 189 184 177 180 181 180 172 169 164 169 169 164 163 164 167 164 167 165 161 157 161 163 165 166 167 158 157 126 124 128 130 124 115 112 108 96 84 67 58 51 53 46 50 52 54 81 69 63 58 35 41 29 30 6 356 16 5 12 343 341 10 65 347 357 347 1
267 268 207 211 194 191 244 297 225 196 160 202 225 217 221 206 165 179 183 188 188 193 189 189 190 194 196 196 191 189 192 193 193 186 184 180 181 175 171 169 168 167 167 166 168 168 167 168 162 160 156 156 160 164 164 158 156 119 108 122 127 123 118 118 119 116 106 92 78 69 65 68 64 56 46 43 49 54 62 63 43 23 39 25 347 0 334 346 12 23 6 2 16 24 9 2 341
216 215 242 262 225 192 206 176 220 183 198 197 204 233 252 255 164 176 184 190 191 197 192 191 191 192 193 195 193 192 195 196 202 193 185 182 179 175 171 169 166 167 166 167 167 166 160 161 157 158 156 154 153 156 155 145 118 99 107 113 116 116 112 117 129 117 109 99 100 100 86 79 83 71 60 55 67 55 45 35 40 1 15 23 8 0 353 359 15 19 40 10 9 11 9 334 313
232 193 206 210 192 209 217 223 196 177 201 208 192 209 228 243 190 180 188 191 196 202 195 193 193 191 190 194 197 194 198 204 199 192 189 187 179 174 172 170 168 167 164 164 165 162 158 155 154 155 159 156 148 151 149 137 118 121 119 115 111 117 123 128 131 121 112 102 95 84 75 72 73 80 72 62 65 65 42 16 9 346 8 30 30 29 10 21 13 17 20 23 18 3 11 4 354
231 214 203 209 210 237 230 213 191 185 191 216 210 218 213 214 210 192 191 190 203 201 199 201 196 190 189 194 198 198 196 203 191 189 189 189 180 174 172 168 165 165 163 163 162 162 159 157 155 161 163 157 157 157 158 154 136 128 128 133 132 140 135 130 116 102 90 88 82 68 70 78 72 73 71 69 65 56 31 340 349 343 16 52 52 45 30 29 23 32 25 34 39 21 10 359 5
241 251 169 220 207 238 240 220 206 186 184 231 223 228 225 202 218 211 190 179 201 203 199 206 206 194 190 192 199 199 200 194 181 186 188 186 178 173 168 167 161 161 169 164 165 164 160 155 159 158 158 161 164 166 164 160 152 149 145 146 137 142 137 130 118 102 104 96 84 81 88 89 84 80 80 68 61 54 6 353 357 12 40 67 69 50 39 33 26 33 30 49 21 49 29 5 356
304 278 282 357 284 232 267 225 195 188 193 250 208 216 229 194 208 211 194 190 202 201 194 203 203 198 192 193 198 198 185 193 188 187 182 181 176 171 170 170 171 168 166 167 165 158 157 155 158 157 162 161 164 166 163 163 149 145 136 142 137 121 97 117 113 118 107 97 88 90 92 91 97 80 67 61 47 13 356 10 15 43 64 67 57 41 32 34 27 33 36 61 29 10 36 12 23
292 290 332 260 260 29 316 296 183 165 181 226 209 217 234 200 214 204 204 195 207 207 202 212 208 203 198 193 191 190 192 189 190 181 182 177 172 171 171 173 172 165 164 161 160 161 158 157 158 159 162 161 164 169 168 158 152 129 117 134 126 122 130 110 101 100 95 93 88 92 89 104 100 92 71 60 35 9 12 37 54 72 70 73 77 59 41 38 32 31 35 38 57 51 13 9 20
280 252 187 226 295 247 201 272 314 184 215 75 76 238 330 229 192 225 220 210 205 213 221 234 237 224 210 193 194 191 191 190 187 181 176 172 170 174 174 173 169 170 170 167 164 163 164 162 163 162 162 163 166 169 167 151 117 100 112 104 97 94 87 101 106 93 100 104 99 89 110 107 99 101 88 40 48 51 49 55 65 77 84 69 75 71 55 52 47 51 47 53 50 88 40 9 3
310 252 199 219 215 292 293 279 37 37 331 222 156 20 276 236 204 200 194 194 212 216 202 225 227 228 212 193 202 205 205 194 183 179 177 177 176 169 167 167 172 174 174 172 169 163 162 162 161 161 160 162 168 171 164 140 139 133 134 133 132 129 131 139 141 146 139 132 133 141 102 103 116 120 167 95 71 73 62 64 69 58 50 70 80 80 65 50 42 44 36 67 60 44 100 48 12
93 270 261 277 228 248 328 348 43 2 312 272 112 232 267 321 200 223 206 197 202 216 214 225 225 226 217 213 198 200 199 201 195 179 174 172 172 165 168 171 174 174 175 171 168 166 165 162 163 163 163 164 168 169 153 145 137 145 148 146 142 143 140 148 137 135 138 140 135 131 129 133 148 146 203 95 87 78 68 58 63 64 61 47 43 62 58 56 51 47 39 55 65 69 60 63 38
279 244 261 288 341 1 338 314 138 220 251 279 31 135 193 300 267 222 196 184 205 228 232 233 227 227 226 222 206 204 202 194 184 180 180 177 171 170 171 175 175 175 169 170 171 169 167 164 163 164 163 164 169 161 154 151 147 148 145 140 141 144 148 147 153 152 144 138 134 142 138 153 165 161 148 47 71 89 83 65 63 66 65 58 62 48 67 61 50 31 43 47 58 72 81 81 59
219 276 215 301 74 57 32 37 337 250 354 302 318 6 24 265 282 47 124 173 224 227 228 231 227 225 233 230 218 210 205 196 183 181 179 178 172 170 167 172 175 168 170 172 173 170 169 165 162 161 162 161 166 157 156 154 149 150 145 138 134 136 139 142 147 150 142 140 135 143 142 164 174 179 160 119 64 67 90 88 74 69 72 67 63 51 31 33 52 49 32 30 34 37 62 97 75
267 252 56 42 58 60 67 354 344 317 36 281 285 150 188 280 297 106 162 189 211 220 224 227 218 216 225 230 228 208 193 198 201 191 177 170 168 167 172 168 167 174 173 172 167 162 166 165 162 160 162 162 160 156 156 154 148 145 140 140 135 139 140 141 148 149 143 150 149 154 158 169 182 162 73 88 95 94 92 88 84 82 85 82 72 70 60 37 22 43 52 49 41 44 26 68 91
243 55 39 358 11 4 351 59 97 26 336 259 263 132 167 278 258 184 149 207 207 215 228 239 234 236 236 234 231 212 183 191 193 190 183 158 160 165 164 171 172 169 168 167 165 163 162 166 163 162 161 158 159 155 155 153 148 143 140 143 142 144 148 148 146 144 144 155 157 163 166 185 182 132 117 103 116 119 99 94 90 79 71 77 78 68 66 44 14 6 28 53 37 44 34 52 56
93 65 80 21 340 1 21 336 36 219 280 263 269 217 154 180 283 244 223 217 206 195 214 219 218 222 226 228 230 221 189 190 186 177 170 156 147 164 167 171 168 165 161 162 160 160 158 164 165 160 158 156 156 150 146 144 135 132 137 143 145 148 151 153 153 157 167 164 165 168 177 161 144 99 110 110 105 104 99 88 76 62 65 73 74 82 72 56 28 22 23 44 46 41 48 57 52
12 45 41 69 279 31 319 3 338 230 220 255 268 95 39 345 231 235 236 239 202 206 213 212 216 221 223 226 224 220 199 177 171 177 168 170 168 164 172 171 163 161 162 160 158 160 160 160 166 160 159 155 150 144 146 127 104 138 147 147 147 151 153 154 157 162 168 165 168 169 161 166 132 120 136 117 124 113 114 98 86 97 85 79 94 84 71 59 47 40 36 42 48 49 62 71 63
218 257 129 84 188 91 258 274 229 304 288 269 305 69 111 256 301 331 318 258 201 198 212 216 217 218 218 218 220 216 200 185 177 175 178 178 175 172 169 169 163 155 155 156 154 155 160 161 162 159 158 154 145 118 92 99 159 151 146 146 152 156 160 159 161 161 165 166 171 165 161 160 156 151 134 128 135 118 106 104 111 129 132 117 99 91 70 59 58 52 47 48 53 61 66 62 60
213 155 149 172 148 155 217 225 261 243 239 294 324 68 252 64 251 322 329 316 288 218 215 228 239 240 246 251 242 217 199 195 175 176 182 181 180 172 169 162 151 147 151 151 147 148 157 159 157 155 154 129 89 118 149 164 174 150 149 155 151 160 165 161 162 158 153 148 145 138 148 152 140 146 139 148 140 129 123 109 122 126 133 112 80 64 61 62 56 49 46 52 59 65 67 65 56
258 168 80 85 226 151 238 206 188 266 323 3 1 132 203 176 257 323 349 352 23 25 8 5 315 319 337 304 238 216 208 188 179 182 184 185 177 165 147 139 143 144 140 139 155 160 159 161 159 159 156 137 144 152 175 174 160 150 152 150 148 165 174 156 151 152 146 136 138 135 142 139 138 137 143 144 152 130 125 119 122 131 119 87 82 91 80 76 63 55 39 55 64 56 70 61 54
252 114 161 210 185 137 64 337 275 242 47 356 254 51 1 319 7 356 357 5 358 4 8 12 351 340 344 255 247 229 207 183 178 184 190 176 148 138 143 148 143 125 139 161 168 166 160 163 168 166 166 163 162 170 175 169 155 151 152 153 164 167 165 158 162 156 134 136 135 136 136 137 134 141 150 153 136 123 126 133 127 122 109 108 99 98 91 73 44 73 82 70 75 71 77 75 69
81 140 241 252 91 113 134 217 320 58 124 131 19 119 259 23 209 327 5 349 329 352 354 354 12 10 14 336 300 262 216 196 179 135 73 86 105 138 147 120 115 121 125 144 158 165 170 173 174 168 171 164 164 166 164 159 149 147 146 151 164 168 161 159 136 115 141 141 135 129 124 126 146 155 153 142 129 124 135 130 127 126 139 121 128 133 149 86 46 18 15 43 82 89 94 72 67
166 213 204 103 307 327 314 85 335 3 2 162 317 299 263 172 230 353 326 290 289 334 348 16 10 10 352 345 344 8 53 63 67 75 90 110 130 125 91 84 88 87 81 109 155 173 182 189 180 174 171 162 156 158 150 136 131 142 155 163 158 154 136 96 96 138 175 141 136 137 138 146 145 140 129 126 127 131 125 114 111 110 92 80 95 129 139 118 82 0 329 0 21 76 90 107 97
350 13 335 225 118 171 87 203 180 123 249 95 247 26 225 217 213 211 233 227 235 313 14 2 0 359 348 352 12 23 47 67 79 92 118 98 67 60 68 82 91 90 96 121 180 185 186 190 188 175 163 155 153 152 146 141 147 150 142 120 106 112 115 132 153 163 164 142 140 140 142 141 150 140 137 139 141 140 137 130 125 123 122 119 91 117 152 176 200 210 230 323 346 72 84 118 132
267 310 297 332 261 214 138 312 187 171 174 172 169 274 281 268 221 184 259 316 330 252 139 334 320 344 33 37 33 42 51 74 95 96 66 62 63 67 75 86 96 100 130 163 207 211 192 187 191 164 168 166 159 147 141 139 142 148 143 141 127 127 136 150 164 154 146 143 141 145 150 143 117 134 144 139 141 149 146 141 131 152 170 162 152 166 99 145 154 264 258 210 286 97 118 161 119
184 177 213 200 202 246 247 273 330 110 125 186 113 232 269 271 49 44 272 254 91 35 111 124 312 29 44 51 55 67 78 94 104 95 85 85 78 65 59 67 87 116 126 162 221 221 208 193 131 151 157 191 174 151 137 136 146 154 158 132 131 135 141 144 145 156 146 144 143 146 142 121 138 165 147 129 138 154 139 143 166 175 216 130 122 128 98 93 286 276 278 286 225 156 161 140 119